RH
16 15 15 15 15 15 16 16 17 19 17 17 17 14 12 12 13 13 15 16 17 18 19 19 18 20 21 24 26 25 27 28 30 33 37 39 37 40 44 42 41 40 35 32 30 29 28 28 28 28 28 28 28 29 30 31 29 27 25 26 27 28 30 30 30 30 31 33 35 37 40 42 44 45 44 41 38 38 38 37 37 38 39 36 34 35 37 37 35 33 30 28 26 24 23 21 20
16 15 15 14 15 15 16 16 18 20 17 17 16 13 12 12 13 13 13 16 20 21 21 20 20 23 23 23 22 23 28 28 26 29 37 39 39 42 42 41 40 40 37 33 31 29 28 28 29 29 29 28 28 29 30 31 29 26 24 25 27 28 29 30 30 30 31 33 35 38 40 42 43 44 44 42 39 37 37 36 35 35 37 37 34 32 34 35 34 32 28 23 20 20 20 21 24
16 16 16 16 16 16 17 16 18 20 18 18 16 13 12 13 13 12 13 16 21 23 22 21 23 25 24 24 23 24 29 29 27 28 37 40 40 44 43 41 40 42 39 33 31 29 29 30 31 30 29 29 28 29 30 31 30 26 24 25 26 27 28 28 29 30 30 32 34 37 39 40 41 42 43 43 40 37 36 34 33 33 32 33 32 29 28 29 30 29 26 21 17 17 20 24 29
15 15 17 18 17 18 18 18 19 19 18 17 16 13 12 14 13 12 13 15 17 19 22 22 23 23 22 26 26 26 29 30 30 28 37 40 38 43 41 39 40 42 38 32 30 28 29 32 33 31 29 29 29 29 29 31 30 27 24 24 26 26 27 27 28 29 29 31 32 34 36 37 38 39 42 43 41 37 36 35 32 30 28 26 26 25 22 21 23 26 26 23 19 18 22 30 33
12 13 16 16 16 17 18 18 18 17 15 15 14 12 12 13 13 12 13 14 14 16 20 22 24 22 22 26 25 28 30 31 32 30 36 39 36 39 37 36 39 40 35 31 30 28 30 33 34 33 30 30 29 30 30 31 31 26 23 23 25 25 26 26 26 28 29 29 30 31 31 33 35 37 39 42 42 37 36 34 31 28 25 23 21 21 21 18 19 24 27 27 23 20 26 36 38
9 10 12 13 13 14 15 16 16 15 14 13 13 12 12 12 12 13 14 14 14 17 19 21 24 22 24 27 26 29 30 30 34 34 36 37 35 38 37 37 39 39 34 29 29 28 30 33 34 33 31 31 30 30 30 31 30 26 22 22 24 24 25 25 25 26 28 28 29 29 29 31 33 35 37 39 39 37 34 31 28 26 24 23 21 20 20 20 18 21 26 29 27 24 30 38 40
7 8 9 10 11 11 13 14 13 13 12 11 11 11 11 11 12 13 15 15 15 20 21 22 23 23 28 28 28 30 30 30 32 35 37 38 39 39 39 38 39 37 32 29 28 28 31 33 34 34 33 32 31 31 31 31 29 24 21 22 23 24 24 25 25 25 26 27 28 28 28 29 31 34 34 35 36 34 32 28 25 24 25 25 24 22 21 22 20 20 24 29 29 29 34 36 38
6 8 8 10 11 10 11 11 9 10 9 8 8 8 9 9 11 12 15 15 16 22 23 24 22 26 32 29 32 34 31 32 30 34 39 43 43 41 41 39 38 35 31 29 29 29 30 33 34 34 34 33 32 31 31 30 27 21 20 21 22 23 24 24 25 25 25 26 27 27 27 28 29 31 32 33 33 32 29 26 24 24 26 27 27 25 23 22 22 21 23 27 29 32 36 35 36
7 8 8 9 10 10 10 10 8 8 7 6 6 6 6 7 9 11 14 15 15 21 24 24 20 26 35 33 37 36 32 33 31 34 40 45 46 43 42 38 36 33 30 28 27 29 30 32 33 33 34 33 32 31 29 28 24 20 19 20 22 23 24 25 25 25 25 25 27 27 28 29 29 29 30 30 31 30 28 25 24 24 26 29 28 28 27 23 22 22 23 25 27 32 38 37 38
9 9 9 9 10 11 11 10 9 8 6 6 5 5 6 6 8 9 12 13 13 20 23 22 21 26 33 34 37 37 35 35 32 36 40 42 45 44 40 35 33 29 27 27 26 27 29 31 32 32 32 32 30 28 27 26 23 20 20 20 21 23 24 25 25 26 26 26 26 27 29 30 30 30 29 29 29 29 27 26 25 25 27 29 29 28 29 26 22 22 23 25 26 33 42 42 40
10 10 9 10 11 11 11 10 8 7 6 6 7 7 8 8 8 8 9 11 11 20 22 20 26 29 32 35 38 38 37 36 33 37 40 41 44 42 36 33 32 28 27 27 26 28 29 31 30 30 29 28 27 26 26 25 23 20 20 21 21 23 24 25 26 27 27 27 27 27 29 30 30 30 30 30 30 29 28 26 26 26 28 30 29 28 28 27 23 21 24 26 30 37 45 45 43
12 10 9 11 12 11 10 9 8 7 7 8 9 9 9 8 9 8 9 9 10 19 20 18 25 28 32 36 38 39 38 37 36 38 41 42 44 41 36 35 34 32 31 28 28 29 30 30 30 28 27 26 25 25 26 25 23 22 21 22 22 23 24 25 26 27 28 28 28 28 28 29 31 31 32 32 31 31 28 26 27 28 30 31 30 29 27 27 25 23 23 26 32 41 46 48 46
13 11 10 11 12 11 10 9 8 8 9 9 10 9 8 8 8 8 8 8 9 14 16 17 21 26 33 36 38 41 40 39 40 42 43 44 45 42 39 38 37 36 35 30 29 30 30 30 29 28 26 25 25 25 26 25 24 23 23 23 23 24 25 26 26 27 28 28 28 28 28 29 30 31 33 34 34 32 29 27 29 30 31 32 31 30 27 27 27 26 25 26 31 39 47 51 49
14 12 11 12 11 11 10 10 9 9 10 9 10 9 9 8 8 8 7 11 13 12 15 19 20 25 33 36 39 42 41 41 40 42 45 47 47 44 43 41 37 36 36 32 29 30 31 30 29 27 25 25 25 26 26 26 25 25 24 24 24 25 25 26 27 27 27 28 28 28 29 29 30 31 33 35 35 33 30 29 31 33 33 33 32 30 28 27 28 28 27 26 29 36 44 53 53
13 12 12 12 12 11 12 11 9 11 12 10 10 10 9 8 8 8 8 15 21 19 18 22 20 23 32 34 38 42 42 43 41 43 48 50 48 45 44 41 36 35 37 35 32 34 33 31 30 28 27 26 27 27 28 28 27 26 25 25 26 26 26 27 27 27 28 28 28 28 29 30 31 32 35 36 35 32 31 32 33 34 35 35 33 31 28 27 29 30 30 28 28 33 40 51 56
14 13 13 13 12 12 12 10 9 12 12 11 11 10 10 9 9 10 11 16 23 23 21 23 19 20 30 36 40 43 44 45 43 45 50 51 49 47 45 42 39 39 42 42 40 41 40 38 36 33 32 29 28 28 28 29 29 28 27 27 27 26 26 27 28 27 28 28 28 30 31 32 33 34 35 34 32 32 32 33 35 35 36 38 36 33 29 28 31 32 32 31 30 31 37 46 56
16 14 13 14 13 12 11 10 11 13 12 12 12 11 11 10 11 15 16 17 22 24 23 23 20 22 32 39 42 43 44 45 45 47 51 52 50 50 48 44 42 44 48 49 48 48 48 45 41 38 34 31 30 30 30 30 30 30 29 29 28 28 28 28 29 28 29 30 31 33 35 34 33 33 33 33 32 33 33 34 36 36 38 42 40 37 32 31 33 34 35 34 33 33 34 40 50
16 15 15 15 13 11 10 10 11 13 12 12 14 13 13 11 12 16 20 23 24 25 26 26 24 30 36 40 44 45 43 44 48 53 56 55 53 54 53 48 46 47 51 53 53 53 52 49 46 41 37 34 34 33 33 32 31 30 30 30 30 30 31 31 31 31 31 33 34 36 36 34 33 33 33 34 34 36 36 36 37 38 40 44 44 40 35 35 36 36 37 38 36 35 34 36 43
16 16 16 14 12 9 9 11 12 13 13 13 14 14 14 13 11 14 23 28 26 28 32 31 32 37 40 42 46 48 47 47 52 58 60 60 58 56 55 52 49 47 52 55 55 54 53 53 52 48 45 43 40 39 37 34 32 31 31 32 33 34 34 34 34 34 35 36 37 38 36 35 35 37 36 36 37 38 40 40 39 40 42 46 48 44 39 39 40 38 39 41 41 38 35 36 38
17 16 16 13 11 9 10 13 13 13 14 14 14 14 13 13 11 15 25 29 28 30 33 34 39 42 44 46 48 52 54 52 54 57 60 61 58 55 54 53 48 47 51 51 53 57 56 55 55 52 50 49 48 47 45 42 39 38 38 38 38 38 38 38 38 38 38 39 39 39 37 38 41 42 41 39 41 41 42 42 41 42 43 46 48 47 44 43 43 42 42 44 45 42 38 38 38
18 18 17 14 12 9 10 14 14 14 15 14 14 14 14 13 13 18 25 31 33 32 28 27 37 45 47 49 50 55 56 53 54 56 59 60 57 56 56 53 47 46 48 46 49 56 55 55 55 53 51 50 51 52 51 50 50 51 50 48 46 45 46 45 44 43 42 42 42 41 41 44 46 47 45 44 47 46 42 41 41 42 45 46 46 48 49 47 45 45 48 48 49 47 41 41 39
19 19 17 15 13 10 10 13 14 15 15 15 15 15 14 12 15 21 25 32 36 34 30 27 36 47 48 49 53 55 54 53 56 58 61 60 58 59 58 52 45 44 45 44 45 48 50 51 51 50 49 49 51 52 52 52 55 57 57 56 55 54 55 54 53 50 48 49 49 48 49 51 52 51 50 50 51 49 44 41 42 43 46 47 46 48 51 50 48 48 52 53 53 51 46 43 40
18 20 18 17 15 12 12 14 15 16 15 15 15 15 15 13 15 24 28 32 35 37 38 36 41 49 50 52 56 57 55 56 57 59 61 61 58 57 56 49 41 40 41 41 42 43 46 47 47 46 46 47 49 50 50 51 54 57 59 60 61 60 60 60 60 58 55 55 56 57 57 56 56 55 54 53 49 46 43 43 45 48 48 45 45 48 51 53 52 52 55 54 54 52 48 45 42
17 18 19 18 16 14 13 15 16 16 15 15 16 15 15 13 15 25 31 33 37 43 46 45 47 50 52 55 59 59 58 57 57 57 59 60 57 55 55 45 37 38 38 39 41 43 45 44 44 44 44 46 48 49 49 50 53 55 58 61 62 63 63 62 61 61 60 61 62 63 61 59 57 54 52 50 45 43 41 41 45 51 52 50 46 48 51 53 53 55 60 59 56 52 47 46 45
16 16 18 19 18 15 14 16 17 17 16 15 16 16 15 13 15 26 34 35 39 47 50 50 51 51 53 57 58 59 59 57 55 53 56 56 54 53 51 39 34 35 33 35 39 42 43 41 43 44 44 47 49 49 48 50 53 56 59 61 63 64 64 63 63 64 65 66 66 64 61 58 54 51 50 47 42 41 42 41 44 49 54 56 53 50 50 53 53 53 61 64 60 55 48 47 48
15 14 16 18 19 16 16 18 18 18 17 16 16 16 15 14 16 26 34 36 43 50 52 53 54 53 54 56 57 58 58 56 52 51 52 52 51 51 46 35 32 32 30 33 37 40 41 41 45 47 45 47 49 49 49 51 54 57 60 62 63 63 64 65 65 65 66 67 66 63 59 55 52 51 51 47 42 39 40 41 43 48 52 56 57 55 51 51 53 53 58 62 62 60 55 52 53
14 13 14 17 18 17 17 18 19 19 18 17 17 17 16 14 17 28 35 37 43 50 53 54 54 54 54 56 59 62 61 57 54 54 53 51 50 48 45 38 32 31 31 33 36 38 41 43 45 47 46 46 47 48 50 52 55 58 60 63 64 64 65 65 64 63 64 65 64 62 58 53 49 49 51 48 42 38 39 39 41 45 48 53 56 57 57 54 52 53 57 60 62 63 62 61 61
14 13 13 14 17 17 18 19 19 20 19 18 18 17 17 14 16 28 38 41 41 44 50 53 53 54 54 54 58 63 65 63 59 58 55 52 49 46 44 40 33 32 33 33 37 39 42 46 47 46 46 46 46 48 49 51 54 57 61 63 64 64 63 62 61 61 62 62 62 60 56 50 47 47 48 46 41 39 39 39 42 43 45 49 52 56 60 60 56 55 59 61 61 61 65 67 67
15 14 13 13 14 15 18 19 19 19 19 19 19 18 17 15 16 25 34 39 39 40 46 50 52 53 53 51 53 59 65 65 62 60 57 53 50 46 43 39 33 33 35 36 38 41 44 47 48 47 46 47 48 48 49 50 54 57 60 62 61 60 59 58 58 59 60 60 59 57 53 49 47 46 46 45 41 38 37 38 41 44 45 47 50 55 60 62 61 62 65 66 65 64 68 71 68
17 15 14 13 12 13 15 18 18 19 19 19 19 19 19 15 14 22 31 36 37 39 43 46 49 52 51 49 50 57 63 63 61 60 57 53 49 46 42 38 35 35 37 38 39 43 46 47 48 48 47 48 49 49 49 50 53 56 58 58 57 56 56 56 56 57 57 57 56 54 51 49 47 47 47 44 38 35 35 37 40 44 45 46 50 58 62 62 64 68 70 74 75 74 76 77 72
18 17 15 14 14 14 13 15 17 18 18 19 18 19 19 15 12 18 29 35 37 39 43 44 46 48 48 50 53 58 63 63 62 60 56 51 48 46 43 39 38 38 38 40 43 46 47 47 48 48 47 49 50 49 48 49 51 53 54 55 54 54 54 54 54 54 55 54 53 52 50 48 46 46 45 41 37 35 35 36 39 41 42 45 50 58 65 66 67 70 71 75 79 80 80 81 80
17 17 18 16 14 15 13 13 15 17 18 18 18 18 17 14 12 16 25 32 34 38 43 43 44 46 46 51 54 57 62 67 66 60 54 51 49 47 44 42 43 41 39 42 46 48 48 46 47 47 46 48 48 48 48 48 50 51 52 53 53 53 53 53 53 54 53 53 52 50 48 46 44 43 42 41 40 40 38 38 40 42 42 45 48 54 62 66 69 71 72 74 78 81 82 80 83
18 17 19 17 14 15 13 12 14 15 17 17 16 17 16 12 11 16 25 30 33 39 43 43 45 46 45 49 53 55 61 69 68 59 53 51 51 48 45 45 46 43 42 45 49 50 49 47 46 46 46 47 48 48 48 49 50 50 50 52 53 53 52 52 53 53 52 51 49 46 44 42 42 43 44 44 44 44 44 44 45 47 47 47 49 52 56 62 67 72 71 72 77 82 84 83 84
21 19 19 17 15 15 13 13 14 15 16 16 16 15 14 12 13 18 26 32 37 40 42 43 45 46 47 49 54 56 59 65 66 59 52 49 50 50 47 47 47 45 47 50 52 53 50 47 45 45 46 47 47 47 48 49 49 48 49 50 50 50 49 50 51 51 51 49 45 43 42 42 43 45 47 47 47 46 46 46 48 50 50 51 54 56 57 59 64 70 69 69 76 83 85 87 87
21 20 18 18 16 15 14 13 14 15 16 16 16 16 14 13 14 18 25 32 38 40 41 43 44 46 48 52 55 58 59 60 61 58 53 48 50 53 51 52 50 47 49 52 54 53 49 47 45 45 46 47 47 47 48 49 48 46 46 46 46 47 48 50 51 50 49 46 44 44 45 44 43 43 46 47 48 47 46 47 49 50 51 53 56 59 60 61 63 68 69 68 75 84 87 88 89
19 19 18 18 15 14 13 12 14 15 16 16 17 16 15 14 14 17 24 30 36 41 41 43 45 46 48 51 55 59 59 58 58 58 55 51 50 52 53 54 50 49 50 52 53 51 49 47 46 46 47 48 47 47 47 47 45 44 43 44 45 46 48 50 50 49 47 47 47 46 46 44 41 41 43 44 45 45 45 46 47 47 49 51 54 57 60 63 65 66 67 69 73 82 87 87 88
18 18 18 16 15 14 12 12 13 14 16 17 16 16 16 15 15 19 24 29 37 43 42 43 45 45 46 50 55 57 57 58 58 57 55 52 48 49 53 54 51 51 51 50 50 49 47 47 47 47 47 47 46 46 45 44 43 42 42 43 45 45 46 48 49 49 49 49 48 46 45 42 40 39 40 40 42 42 42 42 43 44 46 48 51 54 57 62 65 64 65 69 71 77 84 86 85
18 17 18 17 15 14 13 12 14 15 16 16 16 17 17 16 16 20 25 31 39 41 39 41 43 45 46 49 55 57 58 60 60 56 53 52 50 50 54 55 54 53 50 48 47 47 46 46 46 46 46 46 46 46 45 44 43 43 43 43 44 45 46 49 52 52 51 49 48 45 42 38 37 37 38 39 40 41 42 42 42 43 45 47 50 51 54 57 60 62 63 65 68 72 77 80 82
19 18 18 18 16 15 14 14 15 16 17 16 17 17 16 17 20 26 29 30 36 37 34 39 43 46 49 50 55 59 61 62 61 57 53 53 55 54 55 57 56 51 48 45 45 46 45 45 44 45 46 46 47 47 46 46 46 45 45 46 46 46 46 49 51 50 48 47 45 41 36 34 34 34 36 37 39 41 43 44 43 42 43 45 48 50 52 52 54 57 60 62 66 69 71 73 77
20 20 19 18 16 15 16 17 16 17 17 16 18 18 18 20 23 31 33 29 37 44 42 45 48 50 52 54 58 61 62 62 60 58 56 58 61 59 57 58 55 50 48 47 46 46 44 43 43 43 44 45 45 46 47 47 47 47 47 48 48 47 46 45 44 44 44 42 39 35 33 32 33 34 35 37 37 38 41 42 42 41 41 42 45 48 50 51 51 52 55 58 63 67 69 70 72
19 19 19 18 16 16 17 18 18 17 17 18 20 20 23 26 25 32 35 31 41 52 53 54 55 56 58 58 61 65 65 62 59 60 61 64 67 63 58 58 55 51 51 50 48 46 43 42 43 42 43 43 44 44 46 47 47 47 47 47 46 44 43 41 40 41 40 38 35 33 34 34 34 35 36 37 38 39 39 40 40 39 41 42 44 46 48 50 51 53 54 56 59 64 66 68 70
19 18 18 18 16 17 18 18 19 20 19 19 21 22 27 32 32 36 39 38 47 56 57 57 59 59 59 60 62 64 64 62 61 63 66 67 68 64 58 59 58 54 52 51 49 46 43 43 42 42 43 43 43 44 45 45 45 44 43 43 43 42 42 41 41 41 40 38 36 35 36 37 37 36 37 38 39 39 39 39 40 40 42 45 47 48 49 50 52 54 57 58 59 61 63 66 69
18 16 17 17 16 18 20 18 20 22 22 21 21 23 31 37 40 41 41 44 51 58 61 61 63 64 61 60 60 61 62 64 65 68 69 70 71 67 61 61 60 54 50 50 49 47 43 42 42 42 42 42 43 43 43 43 42 40 39 40 42 42 41 41 40 40 40 39 36 36 39 40 39 38 38 39 41 41 41 42 46 47 48 49 50 49 49 50 52 55 58 61 62 62 62 64 68
17 15 16 16 17 21 22 20 22 24 25 25 22 25 34 42 47 48 46 49 53 57 63 64 66 68 65 61 60 60 63 63 64 69 72 73 75 72 66 64 61 55 50 49 48 45 42 41 42 41 41 41 41 42 42 43 41 39 38 39 41 42 42 42 41 40 40 38 36 38 40 40 38 39 40 42 45 46 45 47 50 50 49 49 50 50 49 50 52 54 57 61 63 65 64 64 65
16 15 15 16 18 24 25 22 25 27 27 27 25 26 35 48 58 57 52 57 62 61 63 64 65 67 65 62 60 59 61 61 60 64 70 74 75 73 68 65 61 55 51 49 47 44 42 41 42 42 42 42 42 42 42 42 40 40 40 41 41 42 42 42 42 42 40 38 38 39 40 40 39 39 39 41 45 45 45 46 46 45 45 45 47 49 50 52 53 53 54 57 60 65 67 66 65
16 15 16 17 19 25 27 25 27 30 30 29 27 26 36 56 70 68 62 61 66 68 67 65 66 67 66 64 61 59 59 60 58 59 64 70 73 72 69 66 63 57 52 50 47 44 42 41 41 42 43 44 44 45 43 42 42 42 44 43 43 42 41 42 43 43 41 39 39 40 40 40 39 39 39 39 41 40 41 43 42 42 43 43 44 48 52 54 55 55 56 57 59 64 68 69 69
17 16 17 17 21 26 29 30 31 33 33 29 26 27 39 61 70 65 60 55 57 65 71 71 68 68 67 64 61 60 59 58 59 59 59 64 69 70 69 69 67 60 53 50 47 44 43 41 42 43 44 46 47 47 46 45 46 45 45 44 44 44 43 42 42 41 40 39 39 40 40 40 39 39 39 38 38 38 38 40 41 41 43 43 45 48 50 51 52 55 57 58 60 63 66 69 71
18 18 17 18 24 28 29 32 33 35 34 29 28 27 34 53 63 58 53 50 50 56 65 69 66 64 64 61 60 60 59 59 60 59 58 61 66 66 66 70 70 62 54 50 46 44 44 43 43 44 45 47 48 48 48 48 47 45 44 44 46 46 44 41 40 40 40 39 39 39 39 39 38 38 38 37 37 37 36 37 38 40 42 45 46 47 48 48 49 52 55 56 58 60 63 66 67
19 19 19 21 28 31 31 36 39 38 34 31 32 29 29 45 59 59 57 54 52 53 57 62 62 62 64 61 59 59 60 62 61 59 59 61 65 65 66 70 70 62 54 50 47 46 45 45 45 45 46 47 48 48 49 49 46 44 44 45 47 45 42 40 40 40 39 38 39 38 37 37 38 37 36 36 35 34 34 34 36 38 40 43 46 47 47 47 48 51 53 55 56 56 59 65 66
21 21 21 25 32 35 34 39 43 38 34 33 32 30 37 53 63 63 61 57 57 58 57 58 58 60 61 59 58 60 63 65 63 61 61 63 65 65 67 69 65 58 52 49 48 48 47 47 46 47 47 47 47 48 49 48 46 45 46 46 45 43 40 39 40 39 39 38 38 38 37 37 36 35 34 33 33 32 32 33 35 37 37 40 46 49 48 46 47 49 51 53 55 54 56 63 69
20 21 21 25 31 35 37 40 42 37 34 34 32 35 50 64 66 63 61 59 62 64 61 60 60 60 58 57 59 62 65 66 65 62 61 63 64 63 63 64 59 52 49 49 49 49 49 48 47 47 47 47 47 48 48 46 44 43 43 43 41 40 38 38 37 37 36 35 34 34 35 35 35 34 33 32 31 31 32 33 35 36 36 41 47 48 47 45 44 45 47 48 50 52 55 59 65
21 22 23 23 27 33 38 42 44 41 36 39 49 59 64 67 66 63 62 66 69 68 66 64 63 61 58 59 61 62 64 66 66 64 62 62 62 59 58 59 55 50 48 48 49 50 49 49 48 46 46 46 47 47 47 45 43 42 42 41 39 36 35 34 34 33 33 33 33 32 31 31 31 31 32 32 31 31 33 34 35 36 36 39 43 46 46 45 43 43 44 44 46 51 57 60 63
23 24 23 20 23 30 36 40 42 42 42 51 68 76 73 71 72 68 66 71 72 70 69 67 64 61 61 63 64 62 64 65 66 67 65 62 59 57 54 53 52 49 47 48 48 50 50 49 48 46 45 46 46 44 42 41 39 39 40 39 36 33 32 32 31 32 32 32 32 31 29 28 28 28 29 31 31 32 34 35 34 35 35 36 38 42 45 44 42 43 43 43 45 52 61 65 66
22 20 19 20 23 28 36 41 42 43 48 60 71 75 73 72 74 72 68 69 73 73 70 67 67 66 65 65 64 64 67 67 68 72 70 64 59 57 54 50 49 48 47 47 48 50 50 49 47 46 45 45 44 40 37 36 34 34 34 34 33 31 31 31 32 32 32 31 30 30 29 27 27 27 28 29 31 32 33 34 34 35 35 36 37 38 40 40 39 41 42 41 44 54 64 70 70
21 19 19 23 24 26 33 40 41 40 49 67 74 73 71 68 66 67 65 64 71 76 74 71 70 69 67 65 64 67 69 67 69 73 72 65 60 57 54 50 48 47 46 45 47 49 49 48 46 45 44 43 42 40 37 36 35 33 32 31 31 31 31 32 32 32 32 31 29 29 27 27 27 27 28 28 29 31 31 32 33 34 35 35 36 36 37 37 37 38 40 41 44 53 65 72 73
22 23 22 24 25 26 28 34 37 37 48 70 79 75 72 69 64 62 63 65 70 74 77 77 74 71 70 68 66 67 67 65 68 71 70 66 60 56 53 49 48 47 45 45 47 48 48 47 45 44 44 43 42 41 40 38 36 34 32 31 32 32 32 32 33 33 32 31 30 28 26 26 26 26 27 27 28 29 30 30 31 33 34 33 33 33 34 35 36 37 40 41 43 50 61 70 74
24 25 24 24 24 25 27 30 32 34 47 67 78 77 72 69 67 65 66 71 71 71 75 79 79 77 78 77 73 70 69 68 69 69 67 65 62 58 54 50 48 47 46 46 47 48 48 46 45 45 45 44 43 42 41 38 36 34 32 32 34 35 34 34 34 34 32 31 29 28 26 26 26 26 25 25 26 27 29 31 32 33 33 33 32 31 33 34 35 36 40 41 43 48 56 66 73
24 25 25 24 25 27 32 34 29 28 42 58 67 72 71 69 71 70 69 70 70 70 74 80 84 84 84 83 78 74 73 70 69 69 66 63 60 58 56 53 51 49 48 47 47 48 48 47 46 46 45 44 43 42 40 38 36 34 34 35 37 37 36 36 35 33 31 29 28 27 26 26 26 25 25 25 25 26 27 29 32 34 34 34 33 32 32 34 36 37 39 41 43 47 54 62 70